Memphis, TN

2:10 PM CDT on June 25, 2017 (GMT -0500)
Memphis International

Weather History for KMEM - August, 2012

Change the Weather History Date:

Thursday, August 30, 2012

  Actual Average Record
Temperature  
Mean Temperature 83 °F 80 °F  
Max Temperature 89 °F 90 °F 107 °F (2000)
Min Temperature 77 °F 71 °F 54 °F (1946)
Degree Days  
Heating Degree Days 0 0  
Month to date heating degree days 0 0  
Since 1 June heating degree days 0 0  
Since 1 July heating degree days 0 0  
Cooling Degree Days 18 15  
Month to date cooling degree days 537 514  
Year to date cooling degree days 2218 1822  
Since 1 June cooling degree days 1638 1501  
Growing Degree Days 33 (Base 50)    
Moisture  
Dew Point 71 °F    
Average Humidity 69    
Maximum Humidity 88    
Minimum Humidity 50    
Precipitation  
Precipitation 0.22 in 0.07 in 2.56 in (1962)
Month to date precipitation 1.92 2.80  
Year to date precipitation 18.88 35.30  
Snow  
Snow 0.00 in 0.00 in - ()
Month to date snowfall 0.0 0.0  
Since 1 June snowfall 0.0 0.0  
Since 1 July snowfall 0.0 0.0  
Snow Depth 0.00 in    
Sea Level Pressure  
Sea Level Pressure 29.88 in    
Wind  
Wind Speed 16 mph (ESE)    
Max Wind Speed 29 mph    
Max Gust Speed 35 mph    
Visibility 9 miles    
Events Rain    
T = Trace of Precipitation, MM = Missing Value Source: NWS Daily Summary

Daily Weather History Graph

Daily Weather History Graph

Search for Another Location

Airport or City:

Trip Planner

Search our weather history database for the weather conditions in past years. The results will help you decide how hot, cold, wet, or windy it might be!

Date:

Astronomy

Aug. 30, 2012 Rise Set
Actual Time 6:31 AM CDT 7:28 PM CDT
Civil Twilight 6:05 AM CDT 7:54 PM CDT
Nautical Twilight 5:34 AM CDT 8:25 PM CDT
Astronomical Twilight 5:03 AM CDT 8:56 PM CDT
Moon 6:44 PM CDT (8/30) 5:32 AM CDT (8/30)
Length of Visible Light 13h 48m
Length of Day
12h 57m
Waxing Gibbous, 99% of the Moon is Illuminated
Aug 30
Waxing Gibbous
Aug 31
Full
Sep 8
Last Quarter
Sep 15
New
Sep 22
First Quarter

Hourly Weather History & Observations

Time (CDT) Temp. Heat Index Dew Point Humidity Pressure Visibility Wind Dir Wind Speed Gust Speed Precip Events Conditions
12:54 AM 82.0 °F 84.9 °F 68.0 °F 62% 29.85 in 10.0 mi East 10.4 mph - N/A   Overcast
1:54 AM 82.0 °F 84.9 °F 68.0 °F 62% 29.84 in 10.0 mi East 11.5 mph - N/A   Overcast
2:54 AM 81.0 °F 83.8 °F 68.0 °F 65% 29.82 in 10.0 mi East 12.7 mph - N/A   Overcast
3:54 AM 81.0 °F 84.1 °F 69.1 °F 67% 29.82 in 10.0 mi East 12.7 mph 20.7 mph N/A   Overcast
4:54 AM 80.1 °F 82.9 °F 69.1 °F 69% 29.82 in 10.0 mi East 15.0 mph - N/A   Overcast
5:54 AM 79.0 °F - 69.1 °F 72% 29.84 in 10.0 mi East 12.7 mph - N/A   Mostly Cloudy
6:54 AM 79.0 °F - 70.0 °F 74% 29.86 in 10.0 mi East 11.5 mph - N/A   Mostly Cloudy
7:54 AM 80.1 °F 83.2 °F 70.0 °F 71% 29.87 in 10.0 mi East 12.7 mph - N/A   Mostly Cloudy
8:54 AM 82.0 °F 85.9 °F 70.0 °F 67% 29.88 in 10.0 mi East 15.0 mph - N/A   Overcast
9:54 AM 86.0 °F 90.7 °F 70.0 °F 59% 29.89 in 10.0 mi ESE 18.4 mph - N/A   Overcast
10:54 AM 88.0 °F 92.1 °F 69.1 °F 53% 29.88 in 10.0 mi East 19.6 mph 27.6 mph N/A   Mostly Cloudy
11:54 AM 88.0 °F 90.7 °F 66.9 °F 49% 29.88 in 10.0 mi East 20.7 mph 31.1 mph 0.00 in   Overcast
12:54 PM 84.9 °F 88.8 °F 69.1 °F 59% 29.89 in 10.0 mi East 18.4 mph 26.5 mph 0.00 in Rain Light Rain
1:07 PM 84.2 °F 88.4 °F 69.8 °F 62% 29.90 in 10.0 mi East 17.3 mph 28.8 mph 0.00 in Rain Light Rain
1:54 PM 86.0 °F 90.7 °F 70.0 °F 59% 29.88 in 10.0 mi East 21.9 mph 28.8 mph 0.00 in   Overcast
2:19 PM 86.0 °F 90.4 °F 69.8 °F 58% 29.90 in 10.0 mi East 18.4 mph 32.2 mph N/A   Overcast
2:54 PM 84.0 °F 88.4 °F 70.0 °F 63% 29.89 in 10.0 mi SE 17.3 mph 32.2 mph 0.00 in Rain Light Rain
3:54 PM 79.0 °F - 72.0 °F 79% 29.88 in 6.0 mi East 16.1 mph - 0.03 in Rain Light Rain
4:54 PM 80.1 °F 84.2 °F 73.0 °F 79% 29.86 in 10.0 mi East 18.4 mph 26.5 mph 0.02 in   Overcast
5:54 PM 80.1 °F 84.5 °F 73.9 °F 81% 29.87 in 7.0 mi ESE 18.4 mph 33.4 mph 0.00 in Rain Light Rain
6:54 PM 77.0 °F - 73.0 °F 88% 29.87 in 8.0 mi ESE 17.3 mph 25.3 mph 0.04 in Rain Light Rain
7:43 PM 78.8 °F - 73.4 °F 83% 29.89 in 10.0 mi ESE 13.8 mph 20.7 mph 0.02 in Rain Light Rain
7:54 PM 78.1 °F - 73.9 °F 87% 29.88 in 10.0 mi East 16.1 mph - 0.03 in Rain Light Rain
8:36 PM 77.0 °F - 73.4 °F 89% 29.90 in 8.0 mi ESE 16.1 mph 24.2 mph 0.02 in Rain Light Rain
8:54 PM 77.0 °F - 73.9 °F 90% 29.90 in 7.0 mi ESE 17.3 mph - 0.05 in Rain Light Rain
9:54 PM 77.0 °F - 73.9 °F 90% 29.91 in 10.0 mi East 16.1 mph - 0.05 in Rain Light Rain
10:20 PM 77.0 °F - 73.4 °F 89% 29.92 in 10.0 mi ESE 15.0 mph - 0.00 in Rain Light Rain
10:54 PM 78.1 °F - 73.9 °F 87% 29.91 in 10.0 mi ESE 16.1 mph 23.0 mph 0.00 in   Overcast
11:54 PM 79.0 °F - 73.0 °F 82% 29.91 in 10.0 mi SE 13.8 mph 21.9 mph N/A   Overcast